COSMOS 2251 DEB, 36073

Orbit data source: Space-Track

COSMOS 2251 DEB, 36073 is space debris in LEO originally from a launch on Wed, 16 Jun 1993 UTC launched from the Plesetsk Missile And Space Complex (PKMTR). The debris from Iridium 33, an American commercial communications satellite, has been tracked extensively since its accidental collision with the defunct Russian satellite Cosmos 2251 in 2009. This event, occurring at high speed in low Earth orbit (LEO), generated thousands of pieces of space debris, significantly increasing the risk of further collisions. The Iridium 33 debris cloud has impacted space traffic management and orbital debris mitigation strategies, making it a subject of ongoing study in space situational awareness.

Loading next visibility...
Identifier
36073, 1993-036AYL
Orbit
LEO
Country
Flag of CISCIS
Related business
Manufacturer
Unknown
Mission
Spacecraft
Bus & Motor
Unknown
Mass
Unknown
Launch date (UTC)
1993-06-16 (33 years ago)
Launch vehicle
Unknown
Launch site
Plesetsk Missile And Space Complex (PKMTR)
Object type
Payload
Rocket body
Debris
Shape & HBR
Unknown shape, 0.1 m
Radar Cross Section
Small (<0.1 m²)

Expand to show TLE details & history
Last TLE update: 23 hours ago

TLE from 23 hours ago
0 COSMOS 2251 DEB
1 36073U 93036AYL 26207.51667685  .00000427  00000-0  15783-3 0  9991
2 36073  74.0314 268.5839 0025976 285.2570  74.5711 14.35207047734461
Epoch: 2026-07-26T12:24Z
TLE epoch observation values (Epoch: 2026-07-26T12:24:00.879Z)
Latitude
-0.00003°
Longitude
138.36675°
Altitude
772.089 km
Speed
7.471 km/s
True Right ascension
17h 54m 20s
True Declination
0° 00' 00"
Sunlit
Object was in full shadow at epoch
Visualization orbit readout
Latitude
Unknown
Longitude
Unknown
Altitude
Unknown
Speed
Unknown
Apparent Right ascension
Unknown
Apparent Declination
Unknown
Sunlit
N/A
Visualization observer readout
Local Sidereal Time
00:48:34
Azimuth
Unknown
Elevation
Unknown
Doppler factor
Unknown
Orbital elements
Apogee altitude
790.577 km
Perigee altitude
753.43 km
Semi-major axis
7,150.141 km
Eccentricity
0.0026
Inclination
74.0314°
RAAN
268.5839°
Arg. of periapsis
285.257°
True anomaly
74.85828°
Mean anomaly
74.5711°
Eccentric anomaly
74.71467°
Mean motion
3.58981 °/min
Orbital period
100.28 mins
BSTAR
0.00015783
Loading maneuver chart data...
Computing Atmospheric mass density...

Documentation

Showing up to 5 results
|